DELTA 1 DEB *, 18599

Orbit data source: Space-Track

DELTA 1 DEB *, 18599 is space debris in LEO originally from a launch on Thu, 29 Jul 1976 UTC launched from the Air Force Western Test Range (AFWTR). Debris objects in space refer to the collection of defunct objects orbiting the Earth. Examples of debris include non-operational satellites, rocket bodies, and fragments generated from explosions, collisions, or faulty payload assembly.

Loading next visibility...
Identifier
18599, 1976-077FE
Orbit
LEO
Country
Flag of USUS
Related business
Manufacturer
Unknown
Mission
Spacecraft
Bus & Motor
Unknown
Mass
Unknown
Launch date (UTC)
1976-07-29 (50 years ago)
Launch vehicle
Unknown
Launch site
Air Force Western Test Range (AFWTR)
Object type
Payload
Rocket body
Debris
Shape & HBR
Unknown shape, 0.1 m
Radar Cross Section
Small (<0.1 m²)

Expand to show TLE details & history
Last TLE update: 6 hours ago

TLE from 6 hours ago
0 DELTA 1 DEB *
1 18599U 76077FE  26104.97446941  .00002764  00000-0  15718-1 0  9998
2 18599 100.9126 291.9338 0743277 103.9168  46.2317 11.98897739773660
Epoch: 2026-04-14T23:23Z
TLE epoch observation values (Epoch: 2026-04-14T23:23:14.157Z)
Latitude
22.86861°
Longitude
-77.37758°
Altitude
1,298.662 km
Speed
7.381 km/s
True Right ascension
07h 46m 17s
True Declination
22° 45' 16"
Sunlit
Object was in daylight at epoch
Visualization orbit readout
Latitude
Unknown
Longitude
Unknown
Altitude
Unknown
Speed
Unknown
Apparent Right ascension
Unknown
Apparent Declination
Unknown
Sunlit
N/A
Visualization observer readout
Local Sidereal Time
12:25:35
Azimuth
Unknown
Elevation
Unknown
Doppler factor
Unknown
Orbital elements
Apogee altitude
2,282.539 km
Perigee altitude
1,084.156 km
Semi-major axis
8,061.484 km
Eccentricity
0.07433
Inclination
100.9126°
RAAN
291.9338°
Arg. of periapsis
103.9168°
True anomaly
52.78917°
Mean anomaly
46.2317°
Eccentric anomaly
49.46849°
Mean motion
2.99861 °/min
Orbital period
120.06 mins
BSTAR
0.015718
Loading maneuver chart data...
Computing Atmospheric mass density...
Loading historical data...
Loading historical data...
Loading historical data...
Loading historical data...
Loading historical data...
Loading historical data...
Loading historical data...

Documentation

Showing up to 5 results
|